[[{"header":{"parameterUnit":"m.s-1","parameterCategory":1,"la1":30.2992,"la2":30.254,"lo1":-89.0895,"lo2":-89.0443,"dy":0.0025,"dx":0.0025,"nx":19,"ny":19,"refTime":"2026-03-16T03:00:00:Z","depth":0,"parameterNumber":2,"parameterNumberName":"U-component_of_WINDS"},"data":[0,0,0,-2.4992,-2.4995,-2.5146,-2.5147,-2.5316,-2.5318,0,0,0,0,0,0,0,0,0,0,0,-2.4934,-2.4935,-2.4992,-2.4996,-2.5146,-2.5147,-2.5316,-2.5318,0,0,0,0,0,0,0,0,0,0,0,-2.4934,-2.4935,-2.4936,-2.4996,-2.5146,-2.5147,-2.5316,-2.521,0,0,0,0,0,0,0,0,0,0,-2.5068,-2.5002,-2.4935,-2.4936,-2.4997,-2.5146,-2.5147,-2.5206,-2.5217,-2.5239,0,-2.5255,0,-2.5289,-2.5328,-2.5328,0,0,0,-2.5005,-2.4992,-2.5045,-2.4936,-2.4998,-2.5145,-2.5081,-2.5212,-2.5225,-2.5253,-2.5257,-2.5264,-2.5292,-2.5329,-2.5329,-2.5422,-2.5422,0,0,-2.4997,-2.4954,-2.5036,-2.5052,-2.5028,-2.5076,-2.5085,-2.522,-2.5221,-2.5258,-2.5269,-2.5294,-2.533,-2.5331,-2.5422,-2.5422,0,0,0,-2.4967,-2.4948,-2.4998,-2.5045,-2.5074,-2.508,-2.5091,-2.5216,-2.5235,-2.5271,-2.5296,-2.533,-2.5332,-2.5422,-2.5422,-2.5379,0,0,0,-2.4962,-2.493,-2.4994,-2.4969,-2.5071,-2.5147,-2.5083,-2.5226,-2.5243,-2.5295,-2.533,-2.5334,-2.5423,-2.5422,-2.538,-2.5366,0,0,0,-2.4929,-2.4927,-2.4944,-2.4966,-2.503,-2.5145,-2.5173,-2.5231,-2.5258,-2.5328,-2.5334,-2.5423,-2.5422,-2.5382,-2.5368,-2.5377,0,0,0,-2.4882,-2.4903,-2.4942,-2.4977,-2.5028,-2.5118,-2.5173,-2.5242,-2.5297,-2.5331,-2.5423,-2.5422,-2.5382,-2.5369,-2.5378,-2.5377,-2.5373,0,0,-2.4885,-2.4902,-2.4926,-2.4965,-2.5037,-2.5098,-2.5164,-2.5255,-2.53,-2.5379,-2.5382,-2.538,-2.5368,-2.5378,-2.5364,-2.536,0,0,0,-2.4912,-2.4928,-2.4957,-2.5008,-2.5078,-2.5137,-2.5222,-2.5256,-2.5325,-2.5332,-2.5388,-2.5382,-2.5389,-2.5391,-2.5387,-2.5396,-2.5421,-2.5421,-2.5421,-2.4855,-2.4913,-2.4955,-2.5031,-2.5079,-2.5167,-2.5212,-2.5272,-2.5316,-2.5328,-2.5352,-2.5337,-2.5337,-2.5335,-2.5343,-2.5356,-2.5356,-2.5356,-2.5356,-2.4865,-2.4897,-2.4955,-2.5017,-2.5077,-2.513,-2.5216,-2.5245,-2.5303,-2.5324,-2.5333,-2.5351,-2.5329,-2.5339,-2.5353,-2.5354,-2.5354,-2.5354,-2.5355,-2.4834,-2.4859,-2.49,-2.4979,-2.5033,-2.5109,-2.5162,-2.5215,-2.5266,-2.5275,-2.5306,-2.5306,-2.5314,-2.5286,-2.5286,-2.5286,-2.5286,-2.5286,-2.5286,-2.4785,-2.4832,-2.487,-2.4946,-2.4986,-2.5044,-2.5133,-2.5173,-2.5231,-2.5266,-2.5267,-2.5309,-2.5316,-2.5317,-2.5285,-2.5285,-2.5285,-2.5285,-2.5286,-2.4772,-2.4784,-2.4842,-2.4881,-2.4975,-2.5025,-2.5093,-2.517,-2.5211,-2.5235,-2.5276,-2.5273,-2.5294,-2.5297,-2.5298,-2.5264,-2.5264,-2.5264,-2.5264,-2.4745,-2.4762,-2.4833,-2.4892,-2.4957,-2.5024,-2.5087,-2.5156,-2.523,-2.5259,-2.5271,-2.5277,-2.5278,-2.5299,-2.5302,-2.5303,-2.5271,-2.5271,-2.5271,-2.4741,-2.4766,-2.4809,-2.4881,-2.4958,-2.5023,-2.5085,-2.515,-2.5236,-2.5273,-2.5282,-2.5282,-2.5292,-2.5292,-2.5328,-2.5331,-2.5335,0,0]},{"header":{"parameterUnit":"m.s-1","parameterCategory":1,"la1":30.2992,"la2":30.254,"lo1":-89.0895,"lo2":-89.0443,"dy":0.0025,"dx":0.0025,"nx":19,"ny":19,"refTime":"2026-03-16T03:00:00:Z","depth":0,"parameterNumber":3,"parameterNumberName":"V-component_of_WINDS"},"data":[0,0,0,6.3644,6.3646,6.3765,6.3766,6.391,6.3912,0,0,0,0,0,0,0,0,0,0,0,6.3606,6.3607,6.3644,6.3647,6.3765,6.3766,6.391,6.3912,0,0,0,0,0,0,0,0,0,0,0,6.3606,6.3607,6.3608,6.3647,6.3765,6.3766,6.391,6.3822,0,0,0,0,0,0,0,0,0,0,6.3708,6.3671,6.3607,6.3608,6.3648,6.3765,6.3766,6.3818,6.3828,6.3854,0,6.3879,0,6.3898,6.3921,6.3921,0,0,0,6.3647,6.3663,6.3698,6.3609,6.3649,6.3765,6.3712,6.3823,6.3834,6.3867,6.3881,6.3887,6.39,6.3922,6.3923,6.4081,6.4082,0,0,6.3641,6.3626,6.3691,6.3705,6.3689,6.3708,6.3716,6.383,6.3844,6.3882,6.389,6.3903,6.3923,6.3924,6.408,6.4081,0,0,0,6.3621,6.3621,6.3653,6.3699,6.3721,6.3712,6.372,6.3839,6.3851,6.3892,6.3904,6.3924,6.3925,6.408,6.4081,6.4104,0,0,0,6.3617,6.361,6.365,6.3642,6.3719,6.3782,6.3726,6.3843,6.3856,6.3904,6.3924,6.3927,6.4079,6.408,6.4101,6.4116,0,0,0,6.3599,6.3608,6.3625,6.3641,6.3692,6.378,6.3799,6.3846,6.3864,6.3922,6.3927,6.4078,6.408,6.4099,6.4113,6.4155,0,0,0,6.3574,6.364,6.3625,6.3703,6.3691,6.3795,6.3798,6.3875,6.3927,6.3924,6.4079,6.4081,6.4099,6.4111,6.4153,6.4189,6.4203,0,0,6.3648,6.3648,6.3695,6.3685,6.3789,6.3777,6.3883,6.3943,6.396,6.4039,6.4043,6.4102,6.4113,6.4155,6.4282,6.4293,0,0,0,6.3714,6.3748,6.3778,6.383,6.388,6.3924,6.397,6.3993,6.4062,6.3999,6.4129,6.4135,6.4161,6.4179,6.4188,6.4211,6.4088,6.4088,6.4088,6.3795,6.3818,6.3898,6.3936,6.3985,6.4035,6.4076,6.4115,6.4119,6.415,6.4173,6.4249,6.4269,6.4276,6.43,6.4194,6.4194,6.4194,6.4194,6.3907,6.3959,6.3968,6.405,6.4072,6.414,6.419,6.4192,6.4257,6.4232,6.4255,6.4226,6.4287,6.4309,6.4196,6.4195,6.4195,6.4195,6.4195,6.3963,6.3993,6.4022,6.4101,6.4159,6.4193,6.4257,6.4274,6.429,6.4314,6.4341,6.4341,6.4344,6.4326,6.4326,6.4326,6.4327,6.4327,6.4327,6.4011,6.4043,6.4097,6.4159,6.4196,6.4246,6.4298,6.4334,6.4378,6.4385,6.4385,6.4388,6.4289,6.4265,6.4331,6.433,6.433,6.4329,6.4329,6.4116,6.4096,6.4179,6.4216,6.4292,6.4349,6.4371,6.4443,6.4475,6.4506,6.4505,6.4429,6.4429,6.4422,6.4401,6.4499,6.4499,6.4499,6.45,6.4165,6.4168,6.4258,6.4317,6.4377,6.4407,6.4499,6.454,6.4579,6.46,6.4588,6.4563,6.4555,6.4559,6.4549,6.4531,6.4659,6.4659,6.466,6.4232,6.4242,6.4318,6.436,6.442,6.4472,6.4559,6.4625,6.4664,6.4666,6.4617,6.461,6.4569,6.4555,6.4555,6.4539,6.4505,0,0]}]]